Home > Weather > Fortaleza > Past weeks

Flag for Brazil Weather for the Past 2 Weeks in Fortaleza, Ceará, Brazil

Now
81 °F

Scattered clouds.


Feels Like: 85 °F
Forecast: 79 / 88 °F
Wind: 10 mph from Southeast

Location: Fortaleza Aeropor-To

Current Time: Feb 6, 2016 at 6:30:29 AM

Latest Report: Feb 6, 2016 at 6:00 AM


Visibility: N/A

Pressure: 29.89 "Hg

Humidity: 79%

Dew point: 73 °F

Location of FortalezaLocation

Historic Weather in Fortaleza — Graph

°F

Fortaleza Temperature Yesterday

Maximum temperature yesterday: 88 °F (at 11:00 AM)
Minimum temperature yesterday: 79 °F (at 5:00 AM)
Average temperature yesterday: 83 °F

High & Low Weather Summary for the Past Weeks

 TemperatureHumidityPressure
High88 °F (Jan 24, 12:00 PM)100% (Jan 23, 3:00 AM)29.98 "Hg (Jan 23, 3:00 AM)
Low43 °F (Feb 2, 2:00 PM)22% (Jan 25, 12:00 AM)29.83 "Hg (Jan 22, 2:00 PM)
Average81 °F81%29.90 "Hg
* Reported Jan 22 5:00 AM — Feb 6 5:00 AM, Fortaleza, Weather by CustomWeather, © 2016

Note: Actual official high and low records may vary slightly from our data, if they occured in-between our weather recording intervals... More about our weather records

Advertising

Fortaleza Weather History for the Previous 24 Hours

 ConditionsComfort  
Time TempWeatherWind HumidityBarometerVisibility
5:00 AM
Sat, Feb 6
81 °FPassing clouds.12 mph84%29.89 "HgN/A
4:00 AM81 °FPassing clouds.10 mph84%29.89 "HgN/A
3:00 AM81 °FPassing clouds.10 mph84%29.89 "HgN/A
2:00 AM81 °FPassing clouds.10 mph84%29.89 "HgN/A
1:00 AM82 °FPassing clouds.9 mph79%29.89 "HgN/A
12:00 AM82 °FPassing clouds.9 mph79%29.92 "HgN/A
11:00 PM
Fri, Feb 5
82 °FPassing clouds.9 mph84%29.92 "HgN/A
10:00 PM82 °FPassing clouds.7 mph79%29.92 "HgN/A
9:00 PM81 °FClear.8 mph84%29.92 "Hg10 mi
8:00 PM81 °FClear.9 mph84%29.89 "Hg10 mi
7:00 PM82 °FClear.9 mph79%29.86 "Hg10 mi
6:00 PM82 °FPassing clouds.9 mph74%29.86 "HgN/A
5:00 PM86 °FPassing clouds.15 mph66%29.86 "HgN/A
4:00 PM86 °FPassing clouds.20 mph62%29.86 "HgN/A
3:00 PM86 °FPassing clouds.22 mph66%29.86 "HgN/A
2:00 PM88 °FPassing clouds.17 mph62%29.89 "HgN/A
1:00 PM88 °FScattered clouds.20 mph66%29.89 "HgN/A
12:00 PM88 °FPartly sunny.21 mph62%29.92 "HgN/A
11:00 AM88 °FPartly sunny.18 mph66%29.92 "HgN/A
10:00 AM84 °FPartly sunny.16 mph74%29.95 "HgN/A
9:00 AM82 °FPartly sunny.14 mph79%29.92 "HgN/A
8:00 AM81 °FScattered clouds.10 mph84%29.92 "HgN/A
7:00 AM79 °FScattered clouds.8 mph89%29.89 "HgN/A
6:00 AM79 °FScattered clouds.9 mph89%29.86 "HgN/A
Weather by CustomWeather, © 2016

See weather overviewHow to use our weather pages